Location: Klinovec
(50.3970°N, 12.9600°E)
Time: 15:59:34
(UTC+01:00)

N. Korean satellite - Pass Details

Date: 21 November 2019
Orbit: 455 x 507 km, 97.2° (Epoch: 14 December)

Event Time Altitude Azimuth Distance (km) Brightness Sun altitude
Rises 16:54:14 0° 161° (SSE) 2,572 10.3 -6.2°
Reaches altitude 10° 16:56:17 10° 160° (SSE) 1,701 9.4 -6.5°
Maximum altitude 16:59:57 75° 75° (ENE) 527 6.6 -7.1°
Drops below altitude 10° 17:03:41 10° 350° (N) 1,733 9.2 -7.6°
Sets 17:05:47 0° 349° (N) 2,625 10.2 -7.9°
